This demonstration page uses our WeatherBlox Daily Observations layout. Learn more.

Left ArrowRight Arrow

44.89941, -97.11507

Hourly Observations for January 14, 2017

Temp ( °F °C ) Dew Point ( °F °C ) Humidity (%) Winds ( mph kmh ) Pressure ( in mb ) Visibility ( mi km ) Precip ( " mm )
12:53 am 00:53 Clear 5 -15 -1 -18.3 76 76 S 9 15 30.56 1035 10 16 0.00 0.00
1:53 am 01:53 Clear 4 -15.6 -1 -18.3 80 80 SSW 13 20 30.56 1035 10 16 0.00 0.00
2:53 am 02:53 Clear 4 -15.6 -1 -18.3 80 80 S 7 11 30.56 1035 10 16 0.00 0.00
3:53 am 03:53 Clear -1 -18.3 -5 -20.6 82 82 SSW 9 15 30.55 1035 10 16 0.00 0.00
4:53 am 04:53 Clear 0 -17.8 -4 -20 83 83 SSE 5 7 30.55 1034 10 16 0.00 0.00
5:53 am 05:53 Clear -1 -18.3 -4 -20 87 87 Calm 30.54 1034 10 16 0.00 0.00
6:53 am 06:53 Clear 0 -17.8 -4 -20 83 83 Calm 30.54 1034 10 16 0.00 0.00
7:53 am 07:53 Clear -2 -18.9 -7 -21.7 79 79 Calm 30.55 1035 10 16 0.00 0.00
8:53 am 08:53 Sunny -3 -19.4 -6 -21.1 86 86 Calm 30.56 1035 10 16 0.00 0.00
9:53 am 09:53 Sunny 0 -17.8 -1 -18.3 96 96 Calm 30.58 1036 10 16 0.00 0.00
10:53 am 10:53 Sunny 3 -16.1 0 -17.8 87 87 S 3 6 30.59 1036 10 16 0.00 0.00
11:53 am 11:53 Sunny 6 -14.4 2 -16.7 83 83 Calm 30.58 1035 10 16 0.00 0.00
12:53 pm 12:53 Sunny 10 -12.2 4 -15.6 76 76 Calm 30.55 1035 10 16 0.00 0.00
1:53 pm 13:53 Sunny 14 -10 6 -14.4 71 71 Calm 30.54 1034 10 16 0.00 0.00
2:53 pm 14:53 Sunny 14 -10 6 -14.4 71 71 Calm 30.52 1034 10 16 0.00 0.00
3:53 pm 15:53 Sunny 13 -10.6 6 -14.4 74 74 Calm 30.52 1034 10 16 0.00 0.00
4:53 pm 16:53 Sunny 10 -12.2 3 -16.1 73 73 SSW 7 11 30.52 1034 10 16 0.00 0.00
5:53 pm 17:53 Clear 7 -13.9 2 -16.7 80 80 S 8 13 30.54 1034 10 16 0.00 0.00
6:53 pm 18:53 Clear 5 -15 2 -16.7 87 87 SSE 3 6 30.53 1034 10 16 0.00 0.00
7:53 pm 19:53 Clear 5 -15 2 -16.7 87 87 SSE 3 6 30.53 1034 10 16 0.00 0.00
8:53 pm 20:53 Clear 3 -16.1 1 -17.2 91 91 SSE 3 6 30.52 1034 10 16 0.00 0.00
9:53 pm 21:53 Clear -3 -19.4 -5 -20.6 90 90 Calm 30.53 1034 9 14 0.00 0.00
10:53 pm 22:53 Clear 1 -17.2 -3 -19.4 83 83 Calm 30.50 1033 9 14 0.00 0.00
11:53 pm 23:53 Clear -2 -18.9 -5 -20.6 87 87 SSE 3 6 30.49 1033 7 11 0.00 0.00

Powered by AerisWeather